Location: Spondin
(51.8528°N, 111.6118°W)
Time: 18:22:01
(UTC+00:00)

Vanguard 2 Rocket - Pass Details

Date: 04 June 2022
Orbit: 553 x 3323 km, 32.9° (Epoch: 02 July)

Event Time Altitude Azimuth Distance (km) Brightness Sun altitude
Rises 17:59:31 0° 223° (SW) 6,607 11.4 56.4°
Reaches altitude 10° 18:04:12 10° 215° (SW) 5,867 11.3 56.8°
Maximum altitude 18:20:16 35° 159° (SSE) 4,512 11.9 58.1°
Drops below altitude 10° 18:36:12 10° 103° (ESE) 5,846 11.4 59.2°
Sets 18:40:49 0° 96° (E) 6,585 11.5 59.4°
